Location: Ar Ranvel
(48.3000°N, 4.8833°W)
Time: 03:52:48
(UTC+00:00)

Cosmos 2228 - Visible Passes

Search period start: 18 October 2021 00:00
Search period end: 28 October 2021 00:00
Orbit: 589 x 617 km, 82.5° (Epoch: 17 October)

Date Brightness Start Highest point End Pass type
(mag) Time Alt. Az. Time Alt. Az. Time Alt. Az.
18 Oct 5.6 06:11:53 10° NNE 06:15:29 24° ENE 06:19:03 10° SE visible
21 Oct 6.3 05:13:00 10° NE 05:14:28 11° ENE 05:15:54 10° E visible
22 Oct 6.0 05:24:10 10° NNE 05:27:04 17° ENE 05:29:56 10° ESE visible
22 Oct5.819:41:56NNE19:41:56NNE19:31:23Svisible
23 Oct 5.4 05:35:56 10° NNE 05:39:36 25° ENE 05:43:12 10° SE visible
23 Oct5.418:16:28NE18:16:28NE18:09:33ESEvisible
23 Oct 4.8 19:44:59 10° SSW 19:53:10 14° N 19:53:48 10° N visible
24 Oct 4.6 05:47:57 10° N 05:52:03 38° ENE 05:56:06 10° SE visible
24 Oct 4.3 18:21:25 10° SE 18:24:33 19° E 18:27:42 10° NE visible
24 Oct 4.0 19:57:31 10° SSW 20:01:44 46° WNW 20:06:01 10° N visible
25 Oct 3.7 06:00:07 10° N 06:04:28 60° ENE 06:08:44 10° SSE visible
25 Oct 3.8 18:32:53 10° SSE 18:36:41 30° E 18:40:31 10° NNE visible
25 Oct 4.9 20:10:18 10° SW 20:14:10 30° WNW 20:18:05 10° N visible
26 Oct 6.2 04:36:53 10° NE 04:38:34 12° ENE 04:40:14 10° E visible
26 Oct 3.0 06:12:24 10° N 06:16:47 85° W 06:21:06 10° S visible
26 Oct 3.2 18:44:41 10° SSE 18:48:53 46° E 18:53:06 10° NNE visible
26 Oct 5.5 20:23:23 10° WSW 20:26:40 20° WNW 20:29:59 10° NNW visible
27 Oct 5.9 04:48:10 10° NNE 04:51:10 18° ENE 04:54:07 10° ESE visible
27 Oct 3.2 06:24:48 10° NNW 06:29:03 53° W 06:33:14 10° S visible
27 Oct 2.9 18:56:45 10° S 19:01:08 74° E 19:05:32 10° NNE visible
27 Oct 6.1 20:36:58 10° W 20:39:15 14° WNW 20:41:31 10° NNW visible
